1,427,530개(31203/71377페이지)
LECTURE
번호 제목 글쓴이 조회 날짜
803490 Xbox Game Mastery Can Be Your own Using HoodBekker1288 5 2022.02.16 10:23
803489 Instructing You On The Fundamentals Of G WeeksHoyle4855 4 2022.02.16 10:23
803488 Heads Up Poker Strategy KilicTravis5490 3 2022.02.16 10:22
803487 Postgraduate Research Paper Writing Help SoelbergStanton2338 4 2022.02.16 10:22
803486 VIA-WOMP • Projekt O Przyznanie świadcze AlvarezStorgaard9254 3 2022.02.16 10:22
803485 Maple Leafs' Jason Spezza Has Suspension BraunWiggins3423 9 2022.02.16 10:22
803484 4 Secrets To Winning Poker In Texas Hold BurchVasquez6834 5 2022.02.16 10:22
803483 Need To Have A Extra Appealing 301 Redir HinrichsenGuy5640 10 2022.02.16 10:21
803482 Uzasadnienie Sądzie O Spłatę Ratalną Zad TempleHamilton9166 6 2022.02.16 10:21
803481 Search Engine Optimisation Agency Banbur 사진 SchultzAcosta1194 3 2022.02.16 10:21
803480 Wig Shop Alterations: 5 Actionable Sugge SvenningsenGallagher8841 5 2022.02.16 10:21
803479 Tips To Buy Audio Card For Gaming AbbottDwyer5554 5 2022.02.16 10:21
803478 Folding Poker Tables produced A Differen LoweDawson3744 5 2022.02.16 10:21
803477 XXX Japan XXXJapan Video MasseyGlud6633 3 2022.02.16 10:21
803476 Redesigning Doesn't Must Be A Chore VangBright8973 3 2022.02.16 10:20
803475 PostGraduate Essay Writing Service DouglasKaufman1775 5 2022.02.16 10:20
803474 Easy steps to Self-Care ShortAgger6556 11 2022.02.16 10:20
803473 Learn How To Play Poker - The Easy Way SalinasWiggins8088 5 2022.02.16 10:20
803472 I Liceum Ogólnokształcące Im. Henryka Si BendtsenKofoed2268 3 2022.02.16 10:20
803471 8 Actionable Recommendations on Mink Las LudvigsenSteffensen8409 5 2022.02.16 10:20